KW1M Weather Reports


time (UTC)temp
C
wind
direction
speed
KPH
gust
KPH
rain 1hr
cm
rain 24hr
cm
rain mn
cm
humidity
%
barometer
mb
20260507191537 15 200 4.8 16.1 0.00 0.58 0.00 37 1006.8
20260507190033 13 201 1.6 16.1 0.00 0.58 0.00 38 1007.0
20260507184534 13 201 4.8 16.1 0.00 0.66 0.00 38 1007.3
20260507183034 13 200 1.6 16.1 0.00 0.66 0.00 39 1007.3
20260507181531 14 200 0.0 11.3 0.00 0.66 0.00 37 1007.3
20260507180029 15 201 0.0 8.0 0.00 0.66 0.00 40 1007.5
20260507174537 15 199 1.6 24.1 0.00 0.76 0.00 41 1007.4
20260507173049 14 188 3.2 14.5 0.00 0.76 0.00 43 1007.4
20260507171528 15 188 0.0 11.3 0.00 0.76 0.00 42 1007.6
20260507170025 14 44 4.8 16.1 0.00 0.76 0.00 43 1007.8
20260507164522 14 188 1.6 14.5 0.00 0.76 0.00 46 1007.9
20260507163025 14 187 4.8 17.7 0.00 0.76 0.00 44 1007.9
20260507161519 13 187 0.0 17.7 0.00 0.76 0.00 48 1008.2
20260507160018 13 187 3.2 14.5 0.00 0.76 0.00 48 1008.1
20260507154515 13 186 4.8 14.5 0.00 0.76 0.00 53 1008.3
20260507153013 12 187 3.2 19.3 0.00 0.76 0.00 54 1008.4
20260507151509 12 170 8.0 20.9 0.00 0.76 0.00 63 1008.6
20260507150008 11 188 4.8 16.1 0.00 0.76 0.00 61 1008.7
20260507144506 10 187 6.4 17.7 0.00 0.76 0.00 70 1008.7
20260507143005 11 188 4.8 17.7 0.00 0.76 0.00 69 1008.5
20260507141501 11 187 0.0 8.0 0.00 0.76 0.00 72 1008.7
20260507140107 11 188 0.0 9.7 0.00 0.76 0.00 71 1008.5
20260507134558 11 167 1.6 9.7 0.00 0.76 0.00 76 1008.6
20260507133139 10 187 0.0 9.7 0.00 0.76 0.00 76 1008.8
20260507131551 10 187 0.0 8.0 0.00 0.76 0.00 81 1009.0
20260507130059 9 54 0.0 4.8 0.00 0.76 0.00 82 1008.9
20260507124548 8 52 0.0 6.4 0.00 0.76 0.00 84 1008.9
20260507123047 8 188 0.0 8.0 0.00 0.76 0.00 85 1008.8
20260507121541 7 60 0.0 1.6 0.00 0.76 0.00 88 1008.9
20260507120036 7 147 0.0 3.2 0.00 0.76 0.00 90 1008.9
20260507114534 6 187 0.0 1.6 0.00 0.76 0.00 92 1008.8
20260507113033 6 187 0.0 3.2 0.00 0.76 0.00 93 1008.6
20260507111523 6 187 0.0 0.0 0.00 0.76 0.00 94 1008.7
20260507110019 5 146 0.0 0.0 0.00 0.76 0.00 93 1008.4
20260507104514 5 155 0.0 0.0 0.00 0.76 0.00 93 1008.1
20260507103013 5 183 0.0 1.6 0.00 0.76 0.00 93 1008.0
20260507101511 6 186 0.0 1.6 0.00 0.76 0.00 93 1007.8
20260507100009 6 186 0.0 1.6 0.00 0.76 0.00 93 1008.3
20260507094508 6 56 0.0 0.0 0.00 0.76 0.00 93 1007.9
20260507093008 6 58 0.0 4.8 0.00 0.76 0.00 93 1008.0
20260507091506 6 187 0.0 6.4 0.00 0.76 0.00 94 1008.2
20260507090010 6 53 0.0 0.0 0.00 0.76 0.00 94 1008.3
20260507084502 6 186 0.0 4.8 0.00 0.76 0.00 94 1007.6
20260507083002 6 187 0.0 1.6 0.00 0.76 0.00 94 1007.6
20260507081559 6 188 0.0 3.2 0.00 0.76 0.00 94 1007.6
20260507080059 6 186 0.0 1.6 0.00 0.76 0.00 95 1007.6
20260507074558 6 187 0.0 3.2 0.00 0.76 0.00 95 1007.6
20260507073104 6 187 0.0 3.2 0.00 0.76 0.00 95 1007.2
20260507071554 6 187 0.0 4.8 0.00 0.76 0.00 95 1007.3
20260507070058 6 169 0.0 3.2 0.00 0.76 0.00 95 1006.9
20260507064554 6 56 0.0 3.2 0.00 0.76 0.00 96 1007.0
20260507063048 7 210 0.0 6.4 0.00 0.76 0.00 96 1006.9
20260507061547 7 207 0.0 4.8 0.00 0.76 0.00 96 1007.1
20260507060047 7 210 0.0 6.4 0.00 0.76 0.00 97 1007.1
20260507054543 7 206 0.0 6.4 0.00 0.76 0.00 97 1007.1
20260507053042 7 205 0.0 3.2 0.00 0.76 0.00 97 1007.1
20260507051540 7 205 0.0 6.4 0.00 0.76 0.00 97 1007.1
20260507050040 7 205 0.0 3.2 0.00 0.76 0.00 97 1006.9
20260507044553 7 205 0.0 1.6 0.00 0.76 0.00 97 1006.7
20260507043036 8 205 0.0 3.2 0.00 0.76 0.00 97 1007.0
20260507041533 8 205 0.0 1.6 0.03 0.76 0.00 97 1007.1
20260507040040 8 207 0.0 1.6 0.10 0.76 0.00 97 1007.0
20260507034539 8 208 0.0 3.2 0.15 0.76 0.76 97 1006.7
20260507033041 8 209 0.0 3.2 0.20 0.76 0.76 96 1006.8
20260507031537 8 211 0.0 4.8 0.18 0.71 0.71 96 1006.7
20260507030024 9 208 0.0 4.8 0.10 0.66 0.66 96 1006.8
20260507024521 10 216 0.0 6.4 0.10 0.61 0.61 96 1006.5
20260507023016 10 187 0.0 6.4 0.18 0.56 0.56 96 1006.5
20260507021513 11 186 0.0 6.4 0.23 0.56 0.56 97 1006.2
20260507020010 11 188 0.0 4.8 0.23 0.56 0.56 97 1005.8
20260507014509 12 188 0.0 1.6 0.18 0.51 0.51 97 1005.8
20260507013003 13 188 1.6 12.9 0.05 0.38 0.38 97 1005.5
20260507011504 13 132 1.6 12.9 0.00 0.33 0.33 97 1005.2
20260507010003 13 158 3.2 14.5 0.00 0.33 0.33 97 1005.2
20260507004500 13 188 1.6 12.9 0.00 0.33 0.33 97 1005.2
20260507003113 13 186 0.0 14.5 0.00 0.33 0.33 97 1005.1
20260507001605 13 142 1.6 9.7 0.00 0.33 0.33 97 1005.1
20260507000059 13 187 3.2 19.3 0.00 0.33 0.33 97 1004.8
20260506234606 13 156 3.2 14.5 0.00 0.33 0.33 97 1004.8
20260506233059 13 120 0.0 11.3 0.00 0.33 0.33 97 1004.8
20260506231556 13 150 4.8 22.5 0.00 0.33 0.33 97 1004.8
20260506224559 14 139 4.8 20.9 0.00 0.33 0.33 96 1004.7
20260506223053 14 184 4.8 20.9 0.00 0.33 0.33 96 1004.8
20260506221551 14 150 6.4 25.7 0.00 0.33 0.33 96 1004.8
20260506220053 14 113 8.0 30.6 0.00 0.33 0.33 96 1005.0
20260506214549 14 127 6.4 25.7 0.00 0.33 0.33 96 1004.9
20260506213047 14 117 4.8 27.4 0.00 0.33 0.33 96 1005.0
20260506211547 15 143 4.8 17.7 0.03 0.33 0.33 96 1005.1
20260506210045 15 117 3.2 25.7 0.08 0.33 0.33 96 1005.1
20260506204544 15 146 4.8 17.7 0.10 0.33 0.33 96 1005.2
20260506203043 15 173 4.8 22.5 0.13 0.33 0.33 96 1005.2
20260506201541 15 165 8.0 22.5 0.13 0.30 0.30 95 1005.5
20260506200041 15 120 6.4 22.5 0.08 0.25 0.25 95 1005.5
20260506194538 15 148 1.6 17.7 0.05 0.23 0.23 94 1005.8
20260506193042 15 111 4.8 9.7 0.05 0.20 0.20 94 1005.8